Temperature
21 20 21 21 20 20 20 20 20 20 20 20 19 19 19 20 20 20 20 20 19 19 19 19 19 19 19 19 19 19 19 19 19 18 18 18 18 18 18 18 18 17 17
22 21 21 21 21 20 20 20 20 20 20 20 20 20 20 20 20 20 20 20 20 20 20 20 20 20 20 20 20 20 20 19 19 19 18 18 18 18 18 18 18 18 18
22 21 21 21 21 20 20 20 20 20 20 20 20 20 20 20 20 20 20 20 20 20 20 20 20 20 20 20 20 20 20 20 19 19 18 18 18 18 19 19 19 19 18
22 21 21 21 21 21 20 20 20 21 20 20 20 20 20 20 20 20 20 20 20 20 20 20 20 20 20 20 20 20 20 20 19 19 19 18 18 18 18 18 19 19 19
22 21 21 21 21 21 21 21 21 20 20 20 20 20 20 20 20 20 20 19 19 19 19 20 20 20 20 20 20 19 19 19 19 19 19 18 18 18 18 18 18 18 19
22 21 21 21 21 21 21 21 20 20 20 20 20 20 20 20 20 20 20 20 20 19 19 19 19 19 19 19 19 19 19 19 19 19 18 18 18 18 18 18 18 18 18
22 22 21 21 21 21 21 20 20 20 20 20 20 20 20 20 19 20 20 20 20 20 19 19 19 19 19 19 19 19 19 19 18 18 18 18 18 18 18 18 17 17 17
22 22 21 21 21 21 20 20 20 20 20 20 20 20 19 19 19 19 19 19 19 19 19 19 19 19 19 19 19 19 19 18 18 18 18 18 18 18 18 18 17 17 17
22 22 21 21 21 20 20 20 20 20 20 20 20 19 19 19 19 19 19 19 19 19 19 19 19 19 19 19 19 18 18 18 18 18 18 18 18 18 18 17 17 17 17
21 21 21 21 20 20 20 20 20 19 19 19 19 19 19 19 19 19 19 19 19 19 19 19 19 19 19 18 18 18 18 18 18 18 18 18 18 18 18 17 17 17 17
21 21 21 21 21 20 20 20 19 19 19 19 19 19 19 20 20 19 19 19 19 19 19 19 18 18 18 18 18 18 18 18 18 18 18 18 18 18 18 18 18 17 17
21 21 21 21 21 21 20 20 20 20 19 19 19 19 20 20 20 19 19 19 19 19 19 18 18 18 18 18 18 18 18 18 18 18 18 18 18 18 18 18 18 18 17
22 21 21 21 21 21 20 20 20 20 20 20 20 20 19 19 19 19 19 19 19 19 18 18 18 18 18 18 18 18 18 18 18 18 18 18 18 18 18 18 18 18 18
22 21 21 21 21 21 20 20 20 20 20 20 20 19 19 19 19 19 19 19 19 18 18 18 18 18 18 18 18 18 18 18 18 18 18 18 18 18 18 18 18 18 18
22 21 21 21 20 20 20 20 20 20 20 20 19 19 19 18 18 18 18 18 18 18 18 18 18 18 18 18 18 18 18 18 18 18 18 18 18 18 18 18 18 18 18
22 21 21 20 20 20 20 20 20 19 19 19 19 18 18 18 18 18 18 18 18 18 18 18 18 18 18 18 18 18 18 18 18 18 18 18 18 18 18 18 18 18 18
22 21 21 20 20 20 19 19 19 19 18 18 18 18 18 18 18 18 18 18 18 18 18 18 18 18 18 18 18 18 18 18 18 18 18 18 18 18 18 18 19 18 18
22 21 21 20 20 19 19 19 19 18 18 18 18 18 17 17 17 17 17 17 18 17 17 17 18 18 18 18 18 18 18 18 18 18 18 18 18 18 18 19 19 19 18
22 21 21 20 20 20 19 19 19 18 18 18 18 17 17 17 17 17 17 17 17 17 17 17 17 17 18 18 18 18 18 18 18 18 18 18 18 18 18 19 19 19 19
21 21 21 20 20 20 20 19 19 19 18 18 18 18 17 17 17 17 17 17 17 17 17 17 17 17 17 18 17 17 18 18 18 18 18 18 18 18 18 19 19 19 19
21 21 21 21 21 21 20 20 20 19 19 18 18 17 17 17 16 16 16 16 17 17 17 17 17 17 17 17 17 17 17 17 18 18 18 18 18 18 18 18 19 19 19
22 22 22 22 21 21 20 20 19 19 18 18 17 17 16 16 16 16 16 16 16 16 16 16 16 16 16 17 16 16 16 17 18 18 18 18 18 18 18 18 18 18 18
22 22 22 22 21 20 20 19 19 18 18 17 17 16 16 16 16 16 16 16 16 16 16 16 16 16 16 16 16 16 16 16 17 17 17 17 17 17 17 17 17 18 18
23 22 22 21 21 20 20 19 19 18 17 17 16 16 16 15 15 16 16 16 16 16 16 16 15 15 15 15 15 15 15 15 15 16 16 16 16 16 16 16 17 17 17
22 22 21 21 20 20 20 19 18 18 17 16 16 15 15 15 15 15 15 15 15 15 15 15 15 15 15 15 15 15 15 15 15 15 15 16 16 16 16 16 16 16 16
22 22 21 21 20 20 19 19 18 17 16 16 15 15 15 15 15 15 15 14 14 14 14 14 14 14 14 14 14 14 14 14 14 15 15 15 15 15 15 15 15 15 15
Wind_Speed
8 13 22 20 19 18 17 17 17 17 17 17 16 16 15 14 13 12 11 10 10 9 9 8 8 9 9 9 9 10 11 11 11 11 12 12 12 11 11 11 11 11 13
14 18 22 21 20 19 18 17 17 17 16 16 15 15 14 13 12 11 10 9 9 9 9 8 8 8 7 7 8 8 9 9 9 9 10 10 10 10 11 11 11 10 12
15 18 21 21 20 19 18 18 17 17 16 15 15 14 13 12 11 10 10 8 8 8 8 7 7 6 6 7 7 7 7 7 7 7 7 5 6 7 10 11 11 12 12
14 16 18 20 20 19 18 18 18 18 17 16 14 13 12 11 10 10 9 8 7 6 6 6 6 6 5 5 5 5 6 6 6 7 5 4 4 5 8 11 11 12 13
11 15 18 21 20 19 19 18 17 17 16 15 13 12 11 10 9 8 7 7 6 6 5 5 5 5 5 5 5 5 5 5 6 5 4 5 4 5 8 10 11 12 12
12 15 19 22 20 19 18 17 16 15 15 14 12 11 10 9 9 8 7 7 6 6 6 6 6 6 6 6 6 6 6 6 6 4 4 5 6 7 10 12 12 12 12
13 13 18 22 20 18 17 16 15 14 13 12 11 10 9 8 8 8 8 8 8 7 7 7 7 7 7 8 8 8 7 8 7 5 6 7 8 9 12 16 16 15 15
13 12 15 21 19 18 16 15 14 14 13 11 10 9 9 8 8 8 8 9 9 9 9 9 10 10 10 10 10 9 9 9 8 6 7 8 10 11 11 17 19 19 18
10 9 10 15 17 17 15 14 13 13 12 12 11 10 9 9 9 9 10 10 11 11 11 12 12 12 12 12 12 11 11 11 10 8 9 8 10 12 12 15 20 20 19
10 9 6 9 11 12 13 14 13 13 12 12 11 11 10 10 11 11 12 12 13 13 14 14 14 14 14 13 13 13 13 13 11 11 10 11 13 15 15 16 18 21 21
11 9 7 7 8 10 11 13 14 14 13 13 12 12 12 11 10 10 11 13 14 15 16 16 17 16 16 15 15 16 15 12 12 12 12 14 15 16 17 18 18 21 23
14 13 10 9 7 9 11 11 11 12 12 12 12 11 11 10 11 12 12 15 16 16 17 18 19 18 17 14 15 16 13 13 12 12 14 17 17 18 19 19 20 21 23
12 13 12 11 8 8 7 8 8 9 10 11 12 13 12 10 10 11 10 12 14 15 14 16 17 15 14 13 13 13 14 13 12 13 15 18 18 19 19 19 20 21 23
10 13 12 12 10 8 7 6 6 6 7 9 12 13 10 7 7 8 9 11 12 12 12 13 11 13 14 15 14 13 14 12 12 12 14 18 20 20 20 19 20 20 21
11 12 10 11 12 10 7 6 6 7 8 11 11 12 12 8 9 8 8 10 11 12 11 9 9 9 9 11 12 12 12 13 13 14 13 18 20 21 20 20 21 21 21
11 11 9 11 11 9 9 8 6 7 8 9 10 13 14 12 9 9 9 8 9 12 13 11 9 9 9 8 10 10 11 12 12 13 14 16 19 20 21 21 21 21 21
10 9 9 9 8 8 9 8 6 6 8 7 10 14 15 15 12 9 10 10 9 13 13 11 10 8 9 8 10 10 8 9 11 12 14 14 15 17 20 21 22 22 22
8 8 8 8 8 9 9 8 6 7 7 8 10 12 13 14 14 10 10 11 10 11 8 9 9 8 9 9 8 8 8 8 11 11 11 13 14 14 17 20 22 22 23
9 8 7 8 10 11 11 8 7 5 6 7 7 7 8 10 11 8 8 9 9 7 8 9 8 7 8 9 8 8 8 9 10 10 11 12 14 15 15 16 20 21 22
8 9 8 9 9 8 6 4 3 4 5 4 4 5 7 7 8 6 6 8 7 7 7 8 9 8 8 8 9 9 8 9 9 10 12 10 11 14 16 16 15 16 20
8 9 9 8 7 5 3 2 3 4 4 3 4 5 6 7 7 5 6 7 6 7 8 8 8 8 7 6 5 6 7 9 11 10 9 9 10 11 12 13 13 14 14
9 9 9 8 6 5 3 2 2 2 2 3 3 5 6 7 7 6 7 7 7 7 9 9 8 6 5 5 5 4 4 4 6 8 7 8 8 7 8 9 10 11 13
9 9 7 7 5 5 4 1 1 1 2 3 3 4 4 6 8 7 8 8 8 8 8 9 8 9 8 6 7 6 5 6 3 3 4 5 5 5 5 6 7 8 9
9 6 4 4 4 3 4 3 3 2 3 4 3 4 7 7 8 8 9 9 9 8 9 10 9 8 9 8 6 8 7 5 4 3 2 3 4 5 5 4 5 5 5
6 4 3 3 3 3 4 5 4 4 4 3 4 6 7 7 8 9 9 9 9 8 10 10 9 9 9 9 7 6 7 7 8 6 5 3 2 3 2 3 4 3 2
3 3 4 5 4 4 5 6 6 5 5 4 5 6 6 7 7 9 9 8 9 8 9 10 9 10 9 10 9 7 6 5 6 7 7 4 2 1 1 2 1 1 1
Wind_Direction
160 161 162 160 155 150 144 140 136 134 133 132 131 130 128 127 127 127 128 126 121 115 111 110 111 113 113 114 113 110 114 120 121 123 126 127 129 130 128 126 126 127 128
155 162 165 162 158 154 150 146 142 140 138 136 134 132 131 131 131 130 131 132 130 126 122 120 120 120 121 122 120 120 121 125 129 134 137 134 134 139 140 136 136 136 135
151 161 165 163 160 158 156 152 149 147 145 143 141 138 137 137 137 138 139 141 142 139 136 134 132 130 131 133 133 133 134 136 142 149 145 134 141 154 164 154 152 146 143
150 158 163 164 162 163 162 160 157 155 153 151 149 146 145 145 147 149 151 153 156 155 153 153 152 152 153 154 155 155 155 156 161 161 154 170 175 163 167 167 165 160 155
148 156 165 167 167 168 169 167 165 163 160 158 156 156 157 159 161 164 167 171 176 178 179 180 179 179 183 187 190 192 193 192 192 187 184 196 208 190 181 181 181 178 170
153 158 169 170 173 174 175 173 172 169 167 166 165 168 172 177 181 184 188 194 200 206 210 213 214 214 216 219 221 223 225 227 224 221 228 233 229 229 217 203 199 195 188
157 160 173 173 176 178 180 180 178 176 176 176 178 182 188 196 202 206 208 212 217 222 228 234 237 239 241 243 244 246 249 251 246 236 247 257 258 259 242 219 209 207 202
159 160 174 176 179 181 184 186 186 184 184 186 190 196 204 213 222 228 230 232 235 238 242 247 250 253 255 256 257 258 260 262 266 256 251 255 261 269 259 229 215 212 210
153 155 170 177 182 185 189 193 194 193 193 196 201 207 214 224 233 241 246 249 252 254 257 259 261 265 265 263 263 265 266 267 266 260 262 258 260 267 271 252 227 218 217
156 158 159 171 180 187 193 200 203 205 206 209 213 219 226 234 241 247 250 253 260 264 266 267 269 270 271 269 268 270 271 274 272 268 263 261 261 263 265 266 248 228 222
170 171 168 167 173 181 190 204 209 213 216 219 224 230 235 238 246 255 258 259 262 266 270 272 272 271 271 270 269 270 271 266 266 269 267 265 264 264 264 263 258 242 229
183 187 186 183 177 179 194 202 207 212 217 221 224 232 240 240 242 251 256 259 262 265 268 269 269 267 266 261 262 265 262 259 260 264 266 266 266 266 265 263 260 253 240
187 190 195 195 188 186 194 194 203 209 213 219 222 226 234 243 249 253 254 258 260 264 267 267 267 262 255 251 250 252 253 256 257 259 261 263 263 263 264 264 263 260 253
185 198 198 198 198 198 200 202 206 212 219 224 228 228 228 238 245 248 250 252 253 256 255 256 255 254 252 250 247 249 252 252 254 255 258 262 263 264 266 266 266 266 262
193 201 200 199 204 203 204 212 215 221 227 233 236 234 228 232 242 245 249 250 250 250 252 254 254 254 252 251 248 246 248 250 251 252 257 262 266 268 269 269 266 266 266
200 202 198 200 204 203 211 219 225 229 234 239 241 242 236 234 239 242 246 246 246 246 247 248 249 253 257 253 253 247 247 249 250 251 254 260 264 267 268 268 267 264 260
201 200 199 200 196 204 218 226 232 237 237 239 244 247 246 242 242 243 246 249 248 247 247 249 251 248 252 251 252 253 251 253 251 250 253 256 260 262 262 262 263 260 255
188 193 201 203 193 203 213 220 224 230 233 239 244 248 249 248 246 247 249 252 250 248 246 248 250 246 245 243 245 246 246 248 249 248 252 255 256 259 261 259 258 256 253
173 174 181 194 199 206 211 215 220 225 233 240 244 248 253 255 253 246 252 258 258 254 251 252 248 239 244 242 241 244 242 242 246 250 248 250 253 255 258 260 257 255 254
150 160 174 191 201 200 198 205 228 246 250 251 253 260 270 271 272 264 263 266 264 261 260 253 253 245 243 244 250 251 241 237 236 241 246 249 253 257 259 259 258 257 254
160 174 185 193 196 172 159 182 213 241 251 261 264 269 281 285 286 278 275 275 269 262 261 258 255 254 250 238 242 256 251 239 238 238 239 244 252 257 259 258 257 255 255
188 193 195 199 191 186 179 180 192 218 254 270 287 295 289 289 290 289 276 274 271 268 265 259 249 249 247 216 216 237 266 269 239 235 232 236 244 250 257 261 259 254 252
210 207 202 200 196 198 195 151 83 16 336 315 305 300 295 298 292 284 279 274 272 265 264 258 247 244 249 236 211 211 221 235 257 256 236 234 233 238 252 262 262 256 251
227 220 209 201 195 194 178 183 195 220 260 264 276 284 296 296 295 292 284 279 274 268 262 259 250 240 241 245 229 220 223 213 219 249 248 237 238 244 256 269 269 262 258
234 224 209 193 194 181 176 182 187 212 232 264 283 292 298 301 299 297 294 289 281 273 265 259 254 244 238 239 232 221 228 230 227 228 245 237 236 249 274 285 276 268 270
244 220 200 192 197 182 182 181 185 206 233 272 294 302 306 307 304 302 304 297 290 281 272 264 257 249 243 241 237 226 218 213 212 216 225 228 225 242 19 7 359 19 47
Height
1511 1515 1518 1521 1524 1527 1529 1531 1533 1535 1537 1538 1540 1542 1543 1544 1545 1545 1546 1547 1547 1548 1549 1549 1550 1551 1551 1552 1552 1553 1553 1553 1553 1554 1554 1554 1554 1554 1554 1555 1555 1555 1555
1510 1514 1518 1522 1525 1528 1530 1533 1535 1536 1538 1540 1542 1543 1545 1546 1546 1547 1548 1549 1549 1550 1550 1551 1552 1552 1553 1553 1554 1554 1555 1555 1555 1556 1556 1556 1556 1557 1557 1556 1556 1556 1557
1511 1515 1518 1522 1526 1529 1531 1534 1536 1538 1540 1542 1543 1545 1546 1547 1548 1549 1550 1550 1551 1551 1552 1552 1553 1553 1554 1554 1555 1556 1556 1556 1557 1557 1557 1558 1558 1558 1559 1559 1558 1558 1558
1513 1516 1520 1524 1527 1530 1532 1535 1537 1539 1541 1543 1544 1546 1547 1548 1549 1550 1551 1551 1552 1552 1553 1553 1554 1555 1555 1555 1556 1556 1557 1557 1557 1558 1558 1559 1559 1559 1560 1560 1560 1560 1560
1515 1518 1521 1525 1528 1530 1533 1535 1538 1540 1541 1543 1545 1547 1548 1549 1549 1550 1551 1552 1553 1553 1554 1554 1555 1555 1556 1556 1556 1557 1557 1557 1558 1558 1559 1559 1560 1560 1560 1560 1561 1561 1562
1516 1520 1523 1526 1529 1531 1534 1537 1539 1541 1543 1544 1546 1547 1548 1549 1550 1550 1551 1552 1553 1553 1554 1554 1555 1555 1556 1556 1556 1557 1557 1557 1557 1558 1558 1559 1559 1560 1560 1560 1560 1561 1562
1517 1521 1524 1527 1530 1533 1535 1538 1541 1543 1544 1546 1547 1548 1549 1549 1550 1550 1551 1552 1552 1553 1553 1554 1555 1555 1556 1556 1556 1556 1556 1556 1557 1557 1557 1558 1558 1558 1559 1559 1559 1560 1561
1519 1522 1525 1528 1531 1533 1536 1538 1541 1543 1545 1546 1547 1548 1549 1549 1550 1550 1550 1551 1552 1552 1553 1553 1554 1554 1555 1555 1555 1555 1555 1555 1555 1555 1555 1555 1556 1556 1557 1557 1558 1558 1559
1520 1523 1525 1528 1531 1534 1536 1539 1541 1543 1545 1546 1547 1548 1548 1549 1549 1550 1550 1550 1551 1551 1552 1552 1552 1553 1553 1553 1554 1554 1554 1553 1553 1553 1553 1553 1553 1554 1554 1555 1556 1556 1556
1520 1523 1526 1528 1531 1534 1536 1538 1540 1542 1544 1545 1546 1547 1548 1548 1548 1549 1549 1549 1550 1550 1550 1550 1550 1550 1551 1551 1551 1551 1551 1550 1550 1550 1550 1550 1550 1550 1551 1552 1553 1553 1554
1519 1522 1525 1528 1530 1533 1535 1537 1539 1541 1542 1543 1544 1545 1546 1547 1547 1548 1548 1548 1548 1548 1548 1548 1548 1548 1548 1548 1548 1548 1547 1547 1547 1547 1547 1547 1547 1547 1547 1549 1550 1550 1551
1518 1521 1524 1527 1529 1531 1533 1535 1537 1538 1540 1541 1542 1543 1544 1545 1545 1546 1546 1546 1546 1546 1546 1546 1546 1546 1545 1545 1545 1545 1544 1544 1544 1543 1543 1544 1544 1543 1544 1545 1546 1547 1547
1518 1521 1523 1526 1528 1530 1531 1533 1535 1536 1538 1539 1540 1541 1542 1542 1543 1543 1543 1543 1543 1543 1543 1543 1543 1543 1543 1542 1542 1541 1540 1540 1540 1540 1540 1541 1541 1541 1541 1541 1542 1543 1543
1518 1521 1523 1525 1527 1528 1530 1532 1533 1534 1535 1536 1537 1538 1539 1539 1539 1539 1540 1540 1540 1540 1539 1539 1539 1539 1539 1539 1538 1538 1537 1537 1537 1537 1537 1538 1538 1538 1538 1538 1538 1539 1539
1519 1521 1523 1525 1526 1528 1529 1530 1531 1532 1533 1534 1535 1535 1535 1535 1535 1535 1535 1535 1535 1535 1535 1535 1535 1535 1535 1535 1534 1534 1534 1534 1533 1534 1534 1534 1534 1534 1534 1534 1534 1534 1535
1518 1521 1523 1524 1526 1527 1528 1529 1530 1530 1531 1532 1532 1532 1532 1531 1531 1531 1531 1530 1530 1530 1530 1530 1529 1529 1529 1529 1529 1529 1529 1529 1529 1529 1529 1529 1529 1529 1529 1529 1530 1530 1530
1518 1520 1522 1524 1525 1526 1527 1527 1528 1528 1528 1528 1528 1528 1527 1527 1526 1526 1525 1524 1524 1524 1524 1524 1523 1523 1523 1523 1523 1524 1524 1524 1524 1524 1524 1524 1524 1524 1524 1524 1524 1525 1525
1517 1519 1521 1522 1523 1524 1525 1525 1525 1525 1525 1525 1524 1523 1522 1521 1520 1519 1518 1517 1517 1517 1517 1516 1516 1516 1516 1516 1516 1517 1517 1517 1518 1518 1518 1518 1518 1518 1518 1518 1518 1519 1520
1516 1518 1519 1521 1521 1522 1522 1522 1522 1522 1522 1521 1521 1520 1518 1517 1515 1513 1512 1510 1510 1509 1509 1509 1508 1508 1508 1508 1509 1509 1510 1510 1511 1511 1511 1511 1511 1511 1511 1511 1512 1512 1513
1514 1516 1518 1519 1519 1519 1519 1519 1519 1519 1519 1518 1517 1516 1514 1512 1510 1508 1506 1504 1503 1502 1502 1501 1501 1501 1501 1501 1502 1501 1502 1502 1502 1503 1504 1504 1504 1505 1505 1505 1505 1505 1506
1513 1514 1515 1516 1517 1517 1517 1518 1517 1517 1516 1515 1513 1511 1509 1506 1504 1502 1500 1498 1497 1495 1494 1494 1494 1493 1493 1494 1495 1494 1494 1495 1494 1495 1496 1497 1497 1498 1498 1497 1497 1497 1497
1511 1512 1513 1514 1515 1516 1516 1516 1515 1514 1512 1511 1509 1506 1504 1501 1498 1496 1493 1491 1490 1488 1487 1487 1487 1486 1485 1487 1488 1488 1487 1487 1486 1488 1488 1489 1490 1490 1490 1490 1489 1489 1489
1509 1510 1511 1512 1513 1514 1514 1513 1512 1510 1508 1506 1504 1501 1499 1496 1492 1489 1487 1484 1483 1481 1479 1479 1479 1479 1478 1479 1480 1482 1481 1479 1480 1480 1480 1482 1483 1483 1483 1483 1482 1481 1481
1507 1509 1509 1510 1511 1511 1511 1510 1508 1506 1504 1502 1498 1495 1493 1489 1486 1483 1480 1477 1475 1473 1472 1471 1471 1471 1471 1471 1473 1473 1474 1475 1476 1474 1474 1475 1476 1476 1477 1476 1476 1475 1475
1505 1506 1507 1507 1508 1508 1507 1506 1504 1502 1499 1497 1494 1490 1487 1484 1480 1477 1473 1470 1467 1466 1464 1463 1463 1463 1464 1464 1465 1465 1466 1467 1468 1469 1468 1469 1470 1470 1470 1471 1470 1470 1470
1503 1504 1504 1504 1504 1504 1503 1502 1500 1497 1495 1492 1489 1485 1481 1478 1474 1471 1467 1464 1461 1459 1457 1456 1456 1456 1456 1457 1457 1458 1459 1459 1460 1461 1463 1463 1465 1466 1466 1466 1466 1466 1466